Litchfield, MN

11:30 AM CDT on September 22, 2017 (GMT -0500)
Litchfield Municipal

Weather History for KLJF - September, 2012

Change the Weather History Date:

Monday, September 3, 2012

  Actual Average Record
Temperature  
Mean Temperature 78 °F -  
Max Temperature 93 °F 77 °F 93 °F (2012)
Min Temperature 64 °F 55 °F 28 °F (1974)
Cooling Degree Days 14    
Growing Degree Days 28 (Base 50)    
Moisture  
Dew Point 57 °F    
Average Humidity 60    
Maximum Humidity 100    
Minimum Humidity 17    
Precipitation  
Precipitation 0.00 in - - ()
Sea Level Pressure  
Sea Level Pressure 29.90 in    
Wind  
Wind Speed 2 mph (NE)    
Max Wind Speed 7 mph    
Max Gust Speed -    
Visibility 10 miles    
Events      
Averages and records for this station are not official NWS values.
T = Trace of Precipitation, MM = Missing Value Source: NWS Daily Summary

Daily Weather History Graph

Daily Weather History Graph

Search for Another Location

Airport or City:

Trip Planner

Search our weather history database for the weather conditions in past years. The results will help you decide how hot, cold, wet, or windy it might be!

Date:

Astronomy

Sep. 03, 2012 Rise Set
Actual Time 6:42 AM CDT 7:50 PM CDT
Civil Twilight 6:12 AM CDT 8:20 PM CDT
Nautical Twilight 5:36 AM CDT 8:56 PM CDT
Astronomical Twilight 4:58 AM CDT 9:34 PM CDT
Moon 8:57 PM CDT (9/3) 10:03 AM CDT (9/3)
Length of Visible Light 14h 07m
Length of Day
13h 07m
Waning Gibbous, 90% of the Moon is Illuminated
Sep 3
Waning Gibbous
Sep 8
Last Quarter
Sep 15
New
Sep 22
First Quarter
Sep 29
Full

Hourly Weather History & Observations

Time (CDT) Temp. Heat Index Dew Point Humidity Pressure Visibility Wind Dir Wind Speed Gust Speed Precip Events Conditions
12:13 AM 73.4 °F - 60.8 °F 65% 29.86 in 10.0 mi SSE 3.5 mph - N/A   Scattered Clouds
12:33 AM 73.4 °F - 62.6 °F 69% 29.86 in 10.0 mi Calm Calm - N/A   Clear
12:53 AM 73.4 °F - 62.6 °F 69% 29.86 in 10.0 mi Calm Calm - N/A   Clear
1:13 AM 73.4 °F - 62.6 °F 69% 29.87 in 10.0 mi Calm Calm - N/A   Clear
1:33 AM 71.6 °F - 62.6 °F 73% 29.87 in 10.0 mi Calm Calm - N/A   Clear
1:53 AM 71.6 °F - 64.4 °F 78% 29.87 in 10.0 mi Calm Calm - N/A   Clear
2:13 AM 69.8 °F - 64.4 °F 83% 29.88 in 10.0 mi Calm Calm - N/A   Clear
2:33 AM 69.8 °F - 64.4 °F 83% 29.88 in 10.0 mi Calm Calm - N/A   Scattered Clouds
2:53 AM 69.8 °F - 64.4 °F 83% 29.88 in 10.0 mi WNW 4.6 mph - N/A   Scattered Clouds
3:13 AM 69.8 °F - 64.4 °F 83% 29.89 in 10.0 mi NW 4.6 mph - N/A   Scattered Clouds
3:33 AM 69.8 °F - 64.4 °F 83% 29.89 in 10.0 mi NNW 4.6 mph - N/A   Scattered Clouds
3:53 AM 69.8 °F - 64.4 °F 83% 29.90 in 10.0 mi North 4.6 mph - N/A   Scattered Clouds
4:13 AM 68.0 °F - 64.4 °F 88% 29.90 in 10.0 mi NNW 5.8 mph - N/A   Scattered Clouds
4:33 AM 66.2 °F - 64.4 °F 94% 29.90 in 10.0 mi NNW 4.6 mph - N/A   Scattered Clouds
4:53 AM 66.2 °F - 64.4 °F 94% 29.90 in 10.0 mi NNW 4.6 mph - N/A   Scattered Clouds
5:13 AM 66.2 °F - 64.4 °F 94% 29.90 in 10.0 mi NNW 3.5 mph - N/A   Scattered Clouds
5:33 AM 64.4 °F - 62.6 °F 94% 29.90 in 10.0 mi Calm Calm - N/A   Clear
5:53 AM 64.4 °F - 62.6 °F 94% 29.91 in 10.0 mi North 4.6 mph - N/A   Clear
6:13 AM 64.4 °F - 62.6 °F 94% 29.91 in 10.0 mi Calm Calm - N/A   Clear
6:33 AM 64.4 °F - 62.6 °F 94% 29.92 in 10.0 mi Calm Calm - N/A   Unknown
6:53 AM 64.4 °F - 62.6 °F 94% 29.92 in 10.0 mi Calm Calm - N/A   Unknown
7:13 AM 64.4 °F - 62.6 °F 94% 29.92 in 10.0 mi Calm Calm - N/A   Clear
7:33 AM 64.4 °F - 62.6 °F 94% 29.92 in 10.0 mi Calm Calm - N/A   Clear
7:53 AM 64.4 °F - 62.6 °F 94% 29.93 in 10.0 mi Calm Calm - N/A   Clear
8:13 AM 64.4 °F - 64.4 °F 100% 29.94 in 10.0 mi Calm Calm - N/A   Clear
8:33 AM 71.6 °F - 71.6 °F 100% 29.93 in 10.0 mi Calm Calm - N/A   Clear
8:53 AM 71.6 °F - 71.6 °F 100% 29.94 in 10.0 mi Calm Calm - N/A   Clear
9:13 AM 73.4 °F - 69.8 °F 88% 29.94 in 10.0 mi NE 3.5 mph - N/A   Clear
9:33 AM 75.2 °F - 71.6 °F 89% 29.94 in 10.0 mi Calm Calm - N/A   Clear
9:53 AM 78.8 °F - 66.2 °F 65% 29.94 in 10.0 mi East 4.6 mph - N/A   Clear
10:13 AM 78.8 °F - 60.8 °F 54% 29.95 in 10.0 mi Calm Calm - N/A   Clear
10:33 AM 78.8 °F - 62.6 °F 57% 29.95 in 10.0 mi Calm Calm - N/A   Clear
10:53 AM 78.8 °F - 62.6 °F 57% 29.95 in 10.0 mi Calm Calm - N/A   Clear
11:13 AM 80.6 °F 81.5 °F 60.8 °F 51% 29.95 in 10.0 mi Calm Calm - N/A   Clear
11:33 AM 80.6 °F 81.1 °F 59.0 °F 48% 29.94 in 10.0 mi NE 3.5 mph - N/A   Clear
11:53 AM 82.4 °F 82.9 °F 60.8 °F 48% 29.93 in 10.0 mi ENE 4.6 mph - N/A   Clear
12:13 PM 86.0 °F 84.5 °F 55.4 °F 35% 29.93 in 10.0 mi NE 3.5 mph - N/A   Clear
12:33 PM 87.8 °F 86.1 °F 55.4 °F 33% 29.92 in 10.0 mi ENE 3.5 mph - N/A   Clear
12:53 PM 87.8 °F - 51.8 °F 29% 29.92 in 10.0 mi ENE 3.5 mph - N/A   Clear
1:13 PM 87.8 °F - 51.8 °F 29% 29.91 in 10.0 mi ENE 4.6 mph - N/A   Clear
1:33 PM 89.6 °F - 50.0 °F 26% 29.91 in 10.0 mi ENE 4.6 mph - N/A   Clear
1:53 PM 91.4 °F - 46.4 °F 21% 29.92 in 10.0 mi NE 3.5 mph - N/A   Clear
2:13 PM 91.4 °F - 42.8 °F 18% 29.91 in 10.0 mi ENE 4.6 mph - N/A   Clear
2:33 PM 93.2 °F - 46.4 °F 20% 29.90 in 10.0 mi East 6.9 mph - N/A   Clear
2:53 PM 91.4 °F - 41.0 °F 17% 29.90 in 10.0 mi South 3.5 mph - N/A   Clear
3:13 PM 89.6 °F - 44.6 °F 21% 29.90 in 10.0 mi Calm Calm - N/A   Clear
3:33 PM 89.6 °F - 46.4 °F 22% 29.89 in 10.0 mi ESE 4.6 mph - N/A   Clear
3:51 PM 91.4 °F - 46.4 °F 21% 29.89 in 10.0 mi Calm Calm - N/A   Clear
4:13 PM 91.4 °F - 48.2 °F 23% 29.88 in 10.0 mi Calm Calm - N/A   Clear
4:33 PM 93.2 °F - 48.2 °F 21% 29.88 in 10.0 mi Calm Calm - N/A   Clear
4:53 PM 91.4 °F - 46.4 °F 21% 29.88 in 10.0 mi NNE 4.6 mph - N/A   Clear
5:13 PM 91.4 °F - 46.4 °F 21% 29.87 in 10.0 mi NE 4.6 mph - N/A   Clear
5:33 PM 89.6 °F - 48.2 °F 24% 29.86 in 10.0 mi ENE 5.8 mph - N/A   Clear
5:53 PM 89.6 °F - 48.2 °F 24% 29.86 in 10.0 mi ENE 4.6 mph - N/A   Clear
6:13 PM 87.8 °F - 51.8 °F 29% 29.87 in 10.0 mi ENE 3.5 mph - N/A   Clear
6:33 PM 87.8 °F - 51.8 °F 29% 29.86 in 10.0 mi East 4.6 mph - N/A   Clear
6:53 PM 84.2 °F - 51.8 °F 33% 29.86 in 10.0 mi East 6.9 mph - N/A   Clear
7:13 PM 80.6 °F - 50.0 °F 34% 29.88 in 10.0 mi ESE 4.6 mph - N/A   Clear
7:33 PM 75.2 °F - 48.2 °F 38% 29.88 in 10.0 mi Calm Calm - N/A   Clear
7:53 PM 71.6 °F - 51.8 °F 50% 29.89 in 10.0 mi Calm Calm - N/A   Clear
8:13 PM 71.6 °F - 51.8 °F 50% 29.89 in 10.0 mi Calm Calm - N/A   Clear
8:33 PM 68.0 °F - 53.6 °F 60% 29.89 in 10.0 mi Calm Calm - N/A   Clear
8:53 PM 69.8 °F - 53.6 °F 56% 29.89 in 10.0 mi SSE 3.5 mph - N/A   Clear
9:13 PM 66.2 °F - 53.6 °F 64% 29.89 in 10.0 mi Calm Calm - N/A   Clear
9:33 PM 66.2 °F - 48.2 °F 52% 29.90 in 10.0 mi SE 3.5 mph - N/A   Scattered Clouds
9:53 PM 68.0 °F - 55.4 °F 64% 29.90 in 10.0 mi Calm Calm - N/A   Scattered Clouds
10:13 PM 66.2 °F - 55.4 °F 68% 29.91 in 10.0 mi NE 3.5 mph - N/A   Scattered Clouds
10:33 PM 66.2 °F - 57.2 °F 73% 29.91 in 10.0 mi Calm Calm - N/A   Scattered Clouds
10:53 PM 66.2 °F - 57.2 °F 73% 29.91 in 10.0 mi Calm Calm - N/A   Unknown
11:13 PM 66.2 °F - 59.0 °F 78% 29.91 in 10.0 mi Calm Calm - N/A   Clear
11:33 PM 66.2 °F - 57.2 °F 73% 29.90 in 10.0 mi Calm Calm - N/A   Clear
11:53 PM 66.2 °F - 53.6 °F 64% 29.90 in 10.0 mi ENE 3.5 mph - N/A   Scattered Clouds